Location: Unspecified
(0.0000°N, 0.0000°E)
Time: 21:34:27
(UTC+00:00)

NNS O-2 - Visible Passes

Search period start: 09 February 2026 00:00
Search period end: 19 February 2026 00:00
Orbit: 1017 x 1076 km, 90.1° (Epoch: 9 February)

Date Brightness Start Highest point End Pass type
(mag) Time Alt. Az. Time Alt. Az. Time Alt. Az.
9 Feb 10.2 03:29:20 10° SSE 03:35:16 39° E 03:36:09 38° ENE visible
9 Feb 10.4 05:16:53 10° SW 05:20:52 17° W 05:22:15 16° W visible
10 Feb 9.0 04:15:08 10° S 04:21:30 65° W 04:21:35 65° W visible
11 Feb 10.5 03:16:24 10° SSE 03:21:00 33° ESE 03:21:00 33° ESE visible
11 Feb 10.3 05:03:18 10° SW 05:07:07 19° WSW 05:07:07 19° WSW visible
12 Feb 9.5 04:01:58 10° S 04:06:36 50° SSW 04:06:36 50° SSW visible
13 Feb 11.1 03:03:30 10° SE 03:06:09 22° SE 03:06:09 22° SE visible
13 Feb 10.5 04:49:48 10° SW 04:52:16 18° WSW 04:52:16 18° WSW visible
14 Feb 10.3 03:48:48 10° S 03:51:52 31° S 03:51:52 31° S visible
15 Feb 11.6 02:50:37 10° SE 02:51:31 14° SE 02:51:31 14° SE visible
15 Feb 10.9 04:36:21 10° SSW 04:37:39 15° SW 04:37:39 15° SW visible
16 Feb 11.0 03:35:41 10° S 03:37:19 19° S 03:37:19 19° S visible
17 Feb 11.2 04:22:57 10° SSW 04:23:10 11° SSW 04:23:10 11° SSW visible
18 Feb 11.5 03:22:34 10° S 03:22:55 12° S 03:22:55 12° S visible
